Showing default

ICEYE-X47, 62389

Orbit data source: Space-Track

ICEYE-X47, 62389 is a payload satellite owned by ICEYE (FI) in LEO that was launched on Sat, 21 Dec 2024 UTC via an FALCON 9 launch vehicle from the Air Force Western Test Range (AFWTR). Payload-class satellites include a variety of spacecraft equipped with specific instruments for various scientific and technological missions. These include communications satellites like Starlink; space stations such as the ISS; scientific satellites like the Hubble; Earth observation satellites from companies like Planet Labs, Umbra, and HawkEye 360; GPS; miniature CubeSats for education and research; and military/defense satellites.

Loading next visibility...
Identifier
62389, 2024-247N
Orbit
LEO
Country
Flag of FIFI / FIN
Related business
Manufacturer
ICEYE
Mission
Operational Commercial Radar Imaging
Bus & Motor
ICEYE, Unknown motor
Mass
80 kg wet, 80 kg dry
Launch date (UTC)
2024-12-21 (1 year ago)
Launch vehicle
FALCON 9
Launch site
Air Force Western Test Range (AFWTR)
Object type
Payload
Rocket body
Debris
Shape & HBR
Box + 1 Pan, 0.8 m
Radar Cross Section
0.776 m², Medium (>0.1 m² and < 1m²)

Expand to show TLE details & history
Last TLE update: 1 day ago

TLE from 1 day ago
0 ICEYE-X47
1 62389U 24247N   26036.19338019  .00016465  00000-0  96183-3 0  9990
2 62389  44.9982 341.2504 0001178 286.3301  73.7446 15.11770157 62199
Epoch: 2026-02-05T04:38Z
TLE epoch observation values (Epoch: 2026-02-05T04:38:28.048Z)
Latitude
-0.00004°
Longitude
136.28437°
Altitude
530.572 km
Speed
7.599 km/s
True Right ascension
22h 45m 00s
True Declination
0° 00' 00"
Sunlit
Object was in daylight at epoch
Visualization orbit readout
Latitude
Unknown
Longitude
Unknown
Altitude
Unknown
Speed
Unknown
Apparent Right ascension
Unknown
Apparent Declination
Unknown
Sunlit
N/A
Visualization observer readout
Local Sidereal Time
06:43:05
Azimuth
Unknown
Elevation
Unknown
Doppler factor
Unknown
Orbital elements
Apogee altitude
533.214 km
Perigee altitude
531.586 km
Semi-major axis
6,910.537 km
Eccentricity
0.00012
Inclination
44.9982°
RAAN
341.2504°
Arg. of periapsis
286.3301°
True anomaly
73.75756°
Mean anomaly
73.7446°
Eccentric anomaly
73.75108°
Mean motion
3.77812 °/min
Orbital period
95.29 mins
BSTAR
0.00096183
Loading maneuver chart data...
Computing Atmospheric mass density...
Loading historical data...
Loading historical data...
Loading historical data...
Loading historical data...
Loading historical data...
Loading historical data...
Loading historical data...

Documentation

Showing up to 5 results
|